Probability
0 0 0 0 0 0 0 0 0 0 0 0 1 5 10 15 16 17 19 21 22 21 21 21 18 12 8 7 8 8 7 5 4 4 4 4 4 3 3 4 6 5 2 0
0 0 0 0 0 0 0 0 0 0 0 1 2 4 8 11 12 14 18 19 17 16 16 17 14 10 6 5 5 5 4 3 3 4 4 4 4 3 2 3 5 5 2 1
0 0 0 0 0 0 0 0 0 0 0 1 2 2 5 8 9 10 13 14 11 10 10 11 9 6 3 2 2 2 2 2 2 3 3 3 3 2 1 2 3 3 1 0
0 0 0 0 0 0 0 0 0 0 0 0 1 1 3 6 7 7 8 8 7 6 6 5 4 3 1 0 0 1 2 3 3 3 2 1 1 0 0 1 1 1 0 0
0 0 0 0 0 0 0 0 0 0 0 0 0 0 1 3 4 4 4 4 4 2 2 1 1 0 0 0 0 2 4 6 6 4 2 1 0 0 0 0 0 0 0 0
0 0 0 0 0 0 0 0 0 0 0 0 0 0 0 1 2 2 2 2 2 1 0 0 0 1 1 0 0 2 6 10 9 6 3 1 1 1 1 0 0 0 0 0
0 0 0 0 0 0 0 0 0 0 0 0 0 0 0 1 1 1 0 1 1 0 0 0 1 2 1 0 0 1 4 8 9 7 4 2 2 3 2 0 0 0 0 0
0 0 0 0 0 0 0 0 0 0 0 0 0 0 0 0 0 0 0 0 0 0 0 0 1 1 1 0 0 0 2 5 6 6 5 3 3 3 1 0 0 0 0 0
0 0 0 0 0 0 0 0 0 0 0 0 0 0 0 0 0 0 0 0 0 0 0 0 0 0 0 0 0 0 1 3 4 4 3 2 1 1 0 0 0 0 0 0
0 0 0 0 0 0 0 0 0 0 0 0 0 0 0 0 0 0 0 0 0 0 0 0 0 0 0 0 0 0 1 2 2 2 1 0 0 0 0 0 0 0 0 0
0 0 0 0 0 0 0 0 0 0 0 0 0 0 0 0 0 0 0 0 0 0 0 0 0 0 0 0 0 0 1 1 2 2 1 0 0 0 0 0 0 0 0 0
0 0 0 0 0 0 0 0 0 0 0 0 0 0 0 0 0 0 0 0 0 0 0 0 0 0 0 0 0 0 0 0 0 1 1 0 0 0 0 0 0 0 0 0
0 0 0 0 0 0 0 0 0 0 0 0 0 0 0 0 0 0 0 0 0 0 0 0 0 0 0 0 0 0 0 0 0 0 0 0 0 0 0 0 0 0 0 0
0 0 0 0 0 0 0 0 0 0 0 0 0 0 0 0 0 0 0 0 0 0 0 0 0 0 0 0 0 0 0 0 0 0 0 0 0 0 0 0 0 0 0 0
0 0 0 0 0 0 0 0 0 0 0 0 0 0 0 0 0 0 0 0 0 0 0 0 0 0 0 0 0 0 0 0 0 0 0 0 0 0 0 0 0 0 0 0
0 0 0 0 0 0 0 0 0 0 0 0 0 0 0 0 0 0 0 0 0 0 0 0 1 1 1 0 0 0 0 0 0 0 0 0 0 0 0 0 0 0 0 0
0 0 0 0 0 0 0 0 0 0 0 0 0 0 0 0 0 0 0 0 0 0 0 1 2 2 1 0 0 0 0 0 0 0 0 0 0 0 0 0 0 0 0 0
0 0 0 0 0 0 0 0 0 0 0 0 0 0 0 0 0 0 0 0 0 0 1 2 2 1 0 0 0 0 0 0 0 0 0 0 0 0 0 0 0 0 0 0
0 0 0 0 0 0 0 0 0 0 0 0 0 0 0 0 0 0 0 0 0 0 1 2 1 0 0 0 0 0 0 0 0 0 0 0 0 0 0 0 0 0 0 0
0 0 0 0 0 0 0 0 0 0 0 0 0 0 0 0 0 0 0 0 0 0 1 1 0 0 0 0 0 0 0 0 0 0 0 0 0 0 0 0 0 0 0 0
0 0 0 0 0 0 0 0 0 0 0 0 0 0 0 0 0 0 0 0 0 0 0 0 0 0 0 0 0 0 0 0 0 0 0 0 0 0 0 0 0 0 0 0
0 0 0 0 0 0 0 0 0 0 0 0 0 0 0 0 0 0 0 0 0 0 0 0 0 0 0 0 0 0 0 0 0 0 0 0 0 0 0 0 0 0 0 0
1 1 1 0 0 0 0 0 0 0 0 0 0 0 0 0 0 0 0 0 0 0 0 0 0 0 0 0 0 0 0 0 0 0 0 0 0 0 0 0 0 0 0 0
0 0 1 1 0 0 0 0 0 0 0 0 0 0 0 0 0 0 0 0 0 0 0 0 0 0 0 0 0 0 0 0 0 0 0 0 0 0 0 0 0 0 0 0
0 0 0 0 0 1 1 0 0 0 0 0 0 0 0 0 0 0 0 0 0 0 0 0 0 0 0 0 0 0 0 0 0 0 0 0 0 0 0 0 0 0 0 0
0 0 0 0 1 1 1 0 0 0 0 0 0 0 0 0 0 0 0 0 0 0 0 0 0 0 0 0 0 0 0 0 0 0 0 0 0 0 0 0 0 0 0 0
Wind_Speed
6 8 7 5 6 8 8 9 5 3 2 0 2 4 6 5 4 5 5 5 6 6 6 6 5 6 6 6 6 5 5 4 3 2 1 1 1 1 1 0 1 1 2 2
7 8 5 5 5 7 8 7 3 2 2 1 3 4 4 4 3 4 4 6 6 6 6 6 6 6 6 6 5 5 5 4 3 2 0 0 1 2 1 1 0 2 2 3
9 4 2 6 6 7 6 6 4 1 4 4 4 5 6 6 5 4 4 5 6 6 6 6 6 5 5 6 5 4 4 4 3 2 2 1 2 3 2 2 2 2 3 4
7 4 5 6 5 7 4 2 2 4 5 2 3 1 5 7 7 7 7 7 7 7 7 6 6 5 5 5 5 5 4 4 3 3 2 3 3 4 3 4 3 3 4 5
5 3 5 5 3 4 2 1 3 4 4 2 2 3 6 6 7 8 9 8 8 8 7 6 6 6 5 5 5 4 4 3 2 2 2 4 4 4 4 4 4 5 4 5
6 2 4 2 1 1 5 5 5 6 6 2 1 3 4 5 6 8 9 9 9 8 7 6 6 5 5 4 4 3 3 3 2 2 2 3 4 5 6 6 6 6 5 4
6 6 4 3 5 6 7 7 5 5 3 2 3 3 3 5 5 6 8 9 9 8 7 7 7 6 5 4 4 3 3 2 2 1 2 2 3 4 5 6 5 6 6 5
5 4 4 4 5 3 4 7 6 6 4 2 4 1 5 6 6 6 6 7 8 8 7 6 6 6 5 5 4 3 3 2 1 1 1 2 4 5 4 4 7 7 6 6
4 1 4 1 2 4 3 3 5 6 3 3 2 3 5 7 8 8 9 9 8 8 7 6 6 6 5 4 4 2 2 1 1 1 2 2 3 4 5 6 7 7 6 7
4 4 4 4 5 2 4 1 4 4 5 3 2 2 3 9 9 10 10 10 9 7 7 7 6 5 4 4 4 3 1 1 1 2 3 3 4 4 5 7 7 7 8 8
5 6 4 6 5 2 4 4 4 3 5 6 1 3 4 5 7 9 9 9 8 8 8 7 7 6 5 4 4 3 1 1 2 3 3 5 5 5 6 6 7 7 8 8
4 6 4 2 2 3 4 3 4 4 2 4 4 3 7 5 6 7 7 8 8 8 8 7 7 6 5 4 3 2 1 2 3 3 4 5 5 6 7 8 8 8 8 9
4 5 6 6 7 7 5 4 4 4 4 4 5 3 8 6 6 7 7 8 9 8 8 7 6 6 5 3 2 2 2 3 4 4 5 5 6 7 8 8 8 8 9 9
5 6 8 7 4 1 5 6 7 8 7 6 6 4 4 6 7 8 8 9 9 9 9 8 7 6 4 3 2 2 3 3 4 5 6 6 7 7 8 8 9 9 9 10
6 8 7 8 6 6 8 8 9 11 10 10 7 6 4 3 6 8 9 9 9 9 9 8 7 5 5 4 3 3 3 3 4 5 6 7 7 8 8 9 9 9 9 10
5 8 8 9 8 8 10 11 11 11 11 10 9 8 1 1 4 7 9 9 10 10 9 8 7 6 5 4 3 3 3 4 4 6 7 7 7 8 8 9 9 9 9 9
7 7 9 10 6 8 11 9 9 8 8 9 8 3 3 4 6 7 9 9 9 9 8 7 6 6 5 4 3 4 4 4 5 6 7 7 8 8 9 9 10 9 9 10
6 7 7 8 6 9 2 2 4 6 7 6 6 2 2 3 3 5 6 8 8 8 8 7 6 5 5 4 4 4 4 4 5 6 7 7 8 9 9 9 9 9 9 9
6 7 7 7 9 8 3 3 4 5 5 4 5 3 3 3 4 7 7 7 7 7 7 6 5 5 4 4 3 4 5 5 6 6 7 7 8 9 9 10 10 9 9 10
5 7 8 7 8 6 1 5 2 4 5 3 5 5 6 7 6 2 8 8 8 7 6 6 6 5 5 4 3 4 5 6 6 7 7 7 8 9 10 10 10 9 9 10
7 7 9 9 8 4 5 5 5 5 3 3 3 5 8 7 3 4 7 8 8 8 7 7 6 6 5 4 4 5 6 6 6 7 7 8 8 9 9 9 9 9 9 10
6 5 6 6 7 1 5 4 3 5 5 3 3 4 7 6 4 5 6 8 8 8 8 8 6 5 5 5 5 6 6 6 6 7 8 8 8 8 8 8 9 9 9 10
4 4 3 3 2 5 2 3 5 6 7 6 5 5 6 7 7 7 7 7 8 8 7 7 7 6 5 5 6 7 6 5 6 7 8 8 9 8 8 8 9 9 8 8
3 1 4 4 2 2 2 4 5 6 7 7 6 5 5 7 7 7 7 7 7 8 7 7 7 6 6 5 6 6 6 6 6 8 8 8 8 9 8 7 8 8 8 8
4 3 5 6 4 5 3 7 9 9 7 6 4 3 4 5 6 6 6 6 6 6 6 6 6 6 6 6 6 6 6 6 7 8 8 8 8 8 7 8 7 8 8 7
4 4 6 5 6 7 8 10 11 9 7 5 4 2 1 3 4 4 4 4 5 5 5 5 6 6 6 6 7 6 6 6 7 8 8 7 7 6 7 8 8 7 9 9
Wind_Direction
210 244 263 308 303 301 303 301 315 32 56 256 137 135 133 137 136 130 134 135 126 119 118 119 130 134 136 134 136 134 128 128 137 135 163 168 172 202 219 232 62 288 299 300
227 243 283 297 282 270 275 282 291 128 111 258 140 138 136 146 155 146 152 152 146 142 139 146 154 152 149 147 149 150 148 141 157 127 127 327 326 286 304 315 330 285 287 284
258 317 324 267 266 267 275 299 303 217 153 173 189 166 160 156 163 158 157 158 157 160 161 159 161 163 162 160 166 158 149 161 178 179 203 197 223 251 249 267 256 280 285 279
255 272 272 272 273 281 295 346 271 208 220 179 247 201 146 162 168 168 171 173 168 171 173 166 167 173 173 170 166 167 172 177 187 219 257 282 292 301 316 300 308 295 277 287
249 253 267 278 310 284 7 116 211 225 237 217 216 266 123 158 170 167 169 171 172 176 178 177 181 180 178 174 172 172 169 181 200 235 255 274 288 300 300 302 296 291 284 278
265 239 274 317 62 206 154 177 186 214 234 220 57 283 126 149 165 160 166 169 176 180 182 182 183 178 180 180 182 181 172 178 193 227 259 285 301 303 307 301 303 290 286 278
221 209 188 206 201 178 218 249 244 226 227 78 108 268 85 124 153 164 168 174 176 180 187 187 187 181 180 177 172 171 166 175 188 229 275 290 295 286 281 293 298 298 298 296
246 210 171 207 264 270 242 279 304 317 338 73 166 247 103 134 153 168 173 174 177 182 185 189 185 179 174 160 157 159 157 180 213 270 302 304 292 290 305 316 310 302 301 308
267 184 119 139 270 279 243 270 330 285 277 276 115 128 144 161 179 182 184 185 187 186 180 176 170 165 161 152 144 142 151 163 215 306 307 287 294 308 314 304 284 292 301 297
279 268 158 156 182 138 312 279 235 279 309 300 131 163 136 171 185 184 187 189 184 179 173 167 160 154 145 140 136 130 131 115 309 292 298 307 298 296 297 297 309 303 298 295
253 264 187 193 234 223 189 208 271 290 307 310 350 85 92 165 180 185 186 185 180 180 173 166 158 152 152 153 155 165 181 250 288 306 308 304 301 306 300 295 297 297 294 294
234 272 266 198 110 307 269 275 252 283 291 293 302 90 124 163 176 188 184 177 174 174 169 164 159 161 167 172 181 195 262 294 301 307 302 301 305 304 304 305 305 301 295 291
188 249 248 190 177 191 218 215 238 264 271 273 288 88 134 167 188 191 190 175 170 172 170 167 170 177 184 189 201 243 288 302 305 308 303 307 306 307 306 306 305 302 298 296
238 254 277 294 326 241 223 215 218 242 263 269 275 300 183 194 199 192 187 180 176 176 177 180 183 189 190 199 224 266 289 299 300 300 301 308 308 307 305 305 304 301 300 298
244 256 261 278 283 271 270 261 233 237 265 282 292 292 297 222 208 192 183 182 181 182 185 188 193 192 197 209 226 257 282 290 297 297 299 305 305 304 302 303 302 303 300 297
235 269 272 265 260 262 264 263 257 248 255 263 272 280 331 143 187 182 185 189 192 192 191 191 195 195 204 218 237 261 274 287 290 292 299 305 304 303 304 304 304 302 300 301
226 246 262 266 263 262 257 253 250 241 237 251 264 294 126 181 191 196 195 198 201 196 191 193 196 199 205 216 229 257 274 280 283 290 298 304 303 304 307 308 307 305 303 302
246 246 256 264 260 257 299 70 273 261 255 248 266 258 207 212 189 200 201 203 203 195 192 192 195 194 198 204 217 246 267 273 282 292 299 304 305 304 307 305 304 303 301 301
234 235 250 258 252 254 228 185 219 241 259 229 237 225 170 153 189 200 194 201 202 194 191 187 190 190 192 207 222 248 266 276 285 295 302 306 307 305 303 303 304 304 302 300
193 226 247 242 260 262 106 111 151 250 244 157 197 199 175 186 238 165 158 183 191 186 182 182 182 187 194 204 219 251 267 279 291 301 303 304 302 300 299 301 301 301 299 295
196 206 234 242 249 258 72 128 184 244 29 82 204 205 190 207 269 97 147 172 184 186 184 184 189 196 200 201 217 250 271 283 295 301 297 295 296 296 294 295 294 295 295 297
252 229 221 235 244 255 84 163 237 357 4 329 272 233 213 215 198 171 173 179 186 190 191 192 196 201 200 205 223 250 267 282 292 292 290 292 294 295 298 296 293 292 293 291
255 312 306 288 346 50 23 325 334 333 308 301 288 264 231 225 217 204 196 194 196 197 197 199 202 206 207 209 227 253 268 278 283 285 286 291 294 292 290 292 293 291 288 289
177 327 270 264 246 1 353 338 332 318 306 300 288 264 237 227 223 214 204 198 199 200 199 202 208 215 218 219 229 248 261 266 271 278 284 287 287 286 291 292 290 296 300 300
331 272 266 260 302 310 341 3 349 337 325 315 304 273 242 231 224 213 204 199 197 196 198 201 210 223 231 228 233 242 250 256 266 275 280 283 283 287 291 286 289 292 295 303
338 321 298 312 358 326 330 344 343 339 340 337 330 322 283 245 235 221 210 198 195 195 193 202 214 224 232 234 237 240 241 245 260 271 276 283 287 291 289 292 291 254 249 259